Zurück zum Katalog

COSMOS 2251 DEB

AktivLEO
NORAD 36008·DEBRIS·🇷🇺 Russia

Gestartet Jun 16, 1993 von Plesetsk Cosmodrome

Loading…

Nächste Überflüge (nächste 24 Stunden)

TLE

VeraltetSource: Space-Track

Epoche: Sep 8, 2026, 08:44 UTC

1 36008U 93036AXA 26251.36453361  .00003287  00000-0  11607-2 0  9992
2 36008  74.0060 140.8807 0163105 222.2979 136.5499 14.27911991644693

Verfolge COSMOS 2251 DEB in Echtzeit mit AllMySat

Download on the App Store